Theta_e
326 326 326 325 325 326 325 325 324 323 323 321 321 320 320 320 320 320 320 320 319 319 318 319 319 319 318 316 316 315 317 319 321 322 324 323 322 320 320 322 324 323 321 320 320 319 319 320 321 319 318 318 316 316 314 314 313 313 313 313 313 313 312 311 311 311 311 311 311 312 311 312 311 311 312 311 311 310 310 311 311 311 310 310 310
325 325 324 323 323 324 324 323 323 322 322 320 320 320 319 319 319 319 319 319 318 317 318 317 316 315 314 312 311 313 314 316 318 319 322 323 322 322 315 320 323 323 322 322 321 320 320 319 319 319 319 318 316 315 315 314 313 312 312 312 312 312 311 311 311 310 311 310 310 310 311 310 310 311 311 311 310 311 311 310 310 310 309 309 310
325 323 324 323 322 323 323 322 321 320 321 320 319 319 319 319 319 318 318 318 317 316 316 316 313 310 307 307 307 307 308 311 314 316 319 320 321 322 321 315 319 322 322 320 320 319 319 319 318 318 320 317 316 315 314 313 312 312 312 311 311 311 310 310 310 310 310 309 310 310 309 309 309 309 309 309 309 310 310 310 309 309 310 309 309
325 324 323 322 322 321 321 320 321 319 319 319 317 318 318 318 317 317 317 316 315 314 313 313 311 307 307 307 306 306 307 311 312 312 314 316 318 319 320 319 312 315 320 322 318 317 318 317 317 317 318 318 317 316 314 314 313 312 311 311 310 310 310 310 309 309 309 309 309 309 308 309 309 308 308 309 308 309 308 309 308 309 309 308 308
325 324 322 321 321 321 320 320 320 319 319 318 317 316 315 314 314 314 314 314 313 312 311 311 308 306 306 304 303 302 301 303 305 307 309 312 314 315 318 318 318 312 313 317 320 316 316 317 317 315 317 316 317 315 315 313 313 312 311 311 310 310 310 309 309 309 308 308 308 308 308 308 308 307 307 307 307 308 307 308 307 308 308 308 308
326 324 322 319 319 319 318 318 319 318 317 316 314 315 314 314 313 312 311 313 313 312 311 309 305 303 303 301 299 300 302 304 302 303 305 308 311 313 314 315 315 317 319 312 314 319 317 317 316 316 316 315 315 315 314 313 313 312 311 311 311 309 308 309 308 308 308 307 307 307 307 307 308 306 306 306 307 307 306 307 307 307 307 308 307
327 324 322 320 318 317 317 318 317 316 315 315 315 314 314 313 312 313 312 313 313 311 311 308 304 302 301 301 301 301 300 300 301 302 302 304 307 310 311 312 313 314 316 317 311 313 319 317 316 315 315 314 314 314 314 314 312 312 312 311 312 310 309 307 307 307 308 307 307 306 306 306 307 306 306 306 306 306 306 306 306 306 306 307 307
327 325 323 321 319 318 317 317 315 314 314 313 312 312 312 312 312 313 312 311 310 308 308 306 305 302 299 299 298 299 301 301 299 298 298 302 305 306 308 309 310 310 308 314 315 312 312 318 318 315 315 314 314 313 313 312 313 312 311 311 311 310 309 309 307 305 307 307 306 306 305 306 305 305 305 305 305 305 305 305 306 306 306 305 305
327 326 324 322 320 319 318 316 313 313 312 311 311 311 310 310 310 311 313 310 308 306 304 303 301 298 297 297 297 298 299 299 299 298 298 300 303 303 305 306 305 302 308 310 312 314 309 310 315 316 318 313 313 313 313 312 311 312 311 311 310 310 309 308 306 305 305 305 306 306 305 305 305 305 304 304 304 304 304 304 304 305 306 305 305
326 327 325 322 320 319 315 313 310 309 310 309 308 307 307 308 307 308 309 308 308 304 300 298 298 297 295 295 295 295 295 296 296 296 298 299 300 300 300 301 302 303 304 305 308 310 311 308 308 310 310 315 315 313 313 313 312 312 311 310 310 309 307 307 307 306 305 304 305 305 305 305 304 304 304 304 304 304 304 304 304 304 304 304 304
326 325 324 320 316 315 311 309 307 307 307 306 307 306 306 307 307 306 305 305 305 304 300 297 296 295 293 292 292 292 293 293 293 294 295 295 295 294 296 297 298 299 301 303 305 308 309 311 312 313 311 308 313 316 314 313 312 311 311 311 310 309 308 306 306 306 305 304 304 304 304 304 304 304 304 303 303 303 303 303 304 304 304 304 304
325 325 323 321 318 314 310 307 307 306 305 304 306 305 305 304 306 305 304 302 302 301 299 297 296 294 292 291 291 292 293 293 292 292 292 293 291 292 294 294 295 297 298 301 304 305 307 308 308 309 310 307 306 310 313 315 312 312 311 311 310 310 308 307 306 307 305 305 304 304 304 304 304 304 304 303 303 303 302 303 303 303 303 303 303
326 326 323 317 317 314 309 307 306 305 306 306 306 305 305 305 305 305 303 300 298 297 297 298 297 295 294 293 293 292 291 290 290 291 291 290 290 290 291 293 295 297 298 299 301 302 303 304 305 305 307 308 307 303 306 310 313 311 311 311 311 310 310 308 307 306 306 305 304 303 303 303 303 303 303 302 303 302 302 303 303 303 303 303 303
324 323 321 319 317 313 310 308 307 306 306 306 307 305 305 304 305 302 302 300 299 298 297 299 297 299 295 294 293 294 292 291 290 290 290 290 289 289 293 294 295 296 295 297 298 297 297 298 300 303 304 306 307 308 310 310 311 311 312 312 312 311 310 308 307 307 306 305 305 304 303 303 303 303 302 303 303 302 302 303 302 302 303 303 303
325 323 322 321 319 316 313 310 307 306 306 305 306 305 305 304 302 302 300 301 300 297 298 301 300 302 301 298 295 294 296 294 294 291 290 291 291 291 292 293 293 293 292 293 295 296 295 295 297 300 301 303 304 305 307 305 307 302 309 310 311 312 311 310 309 308 307 305 305 304 304 303 303 303 302 302 302 302 302 302 302 302 302 303 302
327 325 323 322 320 318 314 309 306 305 305 305 305 305 305 305 304 303 302 298 296 295 297 299 301 300 296 298 295 295 296 299 296 295 290 290 290 289 289 290 291 290 290 291 293 292 292 293 294 296 298 300 302 303 304 306 302 300 301 303 307 312 312 310 310 309 307 306 305 305 304 303 303 302 302 302 302 302 302 302 302 301 302 302 302
324 324 322 322 321 319 314 310 308 306 306 306 306 305 304 304 302 302 300 300 298 298 296 297 299 303 302 294 290 291 295 298 298 296 289 290 290 288 288 289 290 292 290 290 290 289 289 290 292 293 296 297 298 300 302 302 301 302 303 301 304 308 310 312 310 310 309 308 307 305 304 303 303 303 302 302 302 302 302 302 301 302 302 302 301
322 322 323 321 321 320 317 312 309 307 306 306 305 305 305 303 302 302 301 303 304 299 295 296 298 298 298 301 299 300 299 296 297 294 289 291 292 289 288 288 289 289 289 288 288 288 288 289 289 290 292 294 295 296 299 301 302 303 304 305 304 307 308 310 311 311 309 309 308 306 305 304 303 302 302 302 302 301 301 301 302 301 302 301 301
321 321 321 321 321 321 319 316 312 308 306 305 305 304 304 304 303 303 302 302 304 300 298 296 296 296 296 296 294 290 293 295 294 292 291 290 287 288 287 287 287 287 287 288 288 286 286 286 287 288 290 293 294 296 298 300 301 302 303 305 306 307 307 308 308 309 309 309 309 307 305 304 303 303 302 302 301 301 301 301 301 301 301 301 301
322 321 321 320 319 319 317 315 312 308 306 306 306 306 304 304 303 303 303 302 302 302 300 298 294 295 296 295 293 292 290 293 292 294 294 291 289 287 287 287 286 287 287 287 287 286 285 285 286 288 289 291 293 295 297 298 299 300 300 304 307 307 308 308 306 307 307 308 308 307 306 305 304 303 303 302 301 301 301 300 301 301 301 301 301
321 322 322 321 319 319 318 315 314 312 307 307 307 306 305 304 302 301 301 301 302 302 301 298 297 297 298 296 296 293 292 291 291 288 290 292 294 288 286 287 287 287 287 286 286 286 285 285 286 287 288 290 292 294 296 297 296 298 300 303 308 309 308 308 307 306 306 305 307 306 306 306 305 304 303 302 301 301 301 301 301 301 301 300 301
320 321 321 321 320 319 317 315 313 312 308 307 306 306 305 303 302 301 300 300 300 300 301 302 299 299 301 300 297 295 292 290 289 287 287 289 291 290 288 286 283 285 287 285 285 285 286 286 286 287 287 288 290 292 293 294 294 295 297 300 305 309 309 308 307 306 305 305 305 305 306 306 306 305 304 303 302 301 301 301 301 301 301 300 300
319 319 319 319 319 318 317 316 315 312 309 307 306 306 305 303 303 302 300 300 300 299 299 301 301 299 299 299 298 297 294 292 297 291 288 288 287 288 290 288 286 286 289 287 286 285 285 286 286 287 287 287 289 290 291 292 292 293 294 298 302 306 308 309 307 306 305 305 305 304 304 304 304 305 304 304 303 302 301 301 301 300 300 300 300
317 317 316 317 317 316 316 315 314 313 311 310 308 307 306 304 303 301 300 301 301 299 299 299 300 299 298 299 299 300 299 299 299 298 293 291 291 291 290 288 286 286 290 286 288 285 286 285 286 286 287 287 287 288 289 290 291 292 292 294 299 303 308 308 307 306 305 305 304 304 304 303 303 303 303 303 303 302 301 300 300 300 300 300 300
314 314 315 316 315 315 315 314 314 313 312 310 309 307 306 304 302 301 300 299 299 299 299 299 299 299 298 299 300 299 298 298 299 299 296 294 292 289 291 288 287 288 288 285 285 286 286 286 287 287 288 288 288 288 288 289 290 291 291 292 295 299 302 306 306 306 305 304 303 303 304 304 303 303 303 302 302 301 301 300 299 299 300 299 299
313 313 314 315 315 315 315 314 313 313 311 310 309 308 306 305 303 302 301 301 300 301 300 299 299 299 299 297 296 296 297 298 297 296 293 291 289 289 291 288 286 287 288 284 286 284 286 287 288 288 288 287 287 287 287 287 288 290 291 291 293 296 299 302 305 305 304 304 303 303 302 302 303 303 302 302 301 301 300 299 298 299 299 299 299
313 313 313 313 313 313 314 313 312 311 310 309 309 307 306 305 304 303 302 301 300 299 299 299 298 298 298 297 297 297 297 297 296 296 295 292 292 291 290 289 289 286 284 285 285 284 287 289 288 287 287 287 287 287 286 286 287 288 289 289 291 293 297 301 304 305 304 303 302 302 302 301 302 303 301 299 300 299 299 299 299 298 298 298 297
313 312 312 312 312 312 312 312 312 311 310 309 309 307 307 306 305 303 302 302 299 299 298 299 299 299 298 298 297 296 296 296 296 295 295 294 293 293 292 290 289 289 288 285 285 285 287 286 288 288 287 287 287 287 287 286 285 288 288 289 290 292 295 299 303 304 304 302 302 302 302 302 301 301 300 299 299 297 297 296 295 294 294 295 295
312 311 311 311 311 311 311 311 311 311 309 309 308 308 307 306 305 304 303 302 300 299 298 297 297 298 299 298 296 296 296 295 294 294 294 293 292 292 293 291 290 289 289 289 287 286 289 287 286 288 288 288 286 286 285 285 286 286 287 288 289 290 293 297 301 304 304 303 302 302 301 301 301 301 299 298 298 297 297 296 295 295 295 295 295
310 311 310 310 310 307 310 310 311 310 309 309 308 307 306 305 304 304 304 302 300 300 299 299 298 298 298 297 296 295 296 295 295 295 294 293 292 292 291 291 291 289 289 288 289 293 290 289 287 287 287 287 286 285 284 284 287 285 286 286 288 289 291 295 299 301 302 302 302 301 302 301 300 299 299 298 298 297 297 297 296 296 296 295 295
309 309 309 309 309 309 309 309 310 309 309 308 308 307 305 304 304 303 303 302 301 299 299 298 297 296 296 296 296 295 295 295 295 294 293 292 292 292 291 291 289 289 289 288 286 292 295 293 289 288 287 286 286 285 285 285 286 286 285 285 286 288 290 291 295 298 299 301 301 300 302 302 300 299 298 298 298 298 297 297 296 296 295 295 294
309 309 308 308 308 308 308 308 308 309 308 308 307 306 305 304 304 302 302 301 300 299 299 299 298 297 296 295 295 295 295 295 295 294 293 292 292 291 290 290 289 289 288 287 286 287 293 293 294 290 288 287 286 285 284 284 285 287 283 284 286 286 287 287 291 294 297 299 301 300 300 302 301 300 299 298 298 297 296 296 296 295 295 294 293
308 308 308 308 308 308 308 307 307 307 307 307 307 306 305 304 303 302 300 298 297 297 297 297 298 297 296 295 295 295 296 294 294 293 293 292 292 291 290 290 289 289 287 286 285 286 290 292 291 290 289 287 285 285 284 284 283 284 285 283 285 285 285 285 285 290 293 296 297 298 298 299 299 299 298 297 297 296 296 296 296 294 293 292 291
308 307 307 307 307 307 307 307 307 307 307 307 307 306 304 303 301 301 300 297 297 296 297 297 297 296 295 295 295 295 295 294 294 293 293 292 291 290 290 289 288 289 289 287 286 286 287 290 288 286 285 286 284 285 284 283 282 283 283 283 283 285 284 284 283 284 290 293 294 296 297 297 298 298 298 297 296 295 296 296 294 293 292 291 289
307 306 306 307 306 306 306 306 306 306 306 306 306 305 304 303 301 300 300 297 296 296 295 295 296 297 295 294 294 295 295 294 294 294 294 292 291 290 289 288 288 288 289 288 287 286 286 287 290 289 286 284 283 284 284 284 283 283 283 283 282 283 283 283 283 283 287 291 293 295 297 296 296 297 297 295 294 294 294 294 293 291 290 289 288
305 305 305 306 305 305 304 304 304 304 304 304 304 304 304 303 302 301 299 298 297 297 296 296 296 296 295 294 295 295 295 294 294 293 293 292 292 291 290 289 289 288 289 288 288 287 287 286 289 290 288 283 283 284 284 284 284 283 282 283 283 282 282 282 282 283 284 289 291 293 295 296 295 295 295 294 294 294 293 293 292 290 289 287 287
303 303 302 303 303 303 303 303 303 302 302 303 303 303 302 302 302 301 301 300 298 297 297 297 294 296 295 295 295 295 295 294 293 293 293 292 292 291 291 291 290 290 289 288 288 287 286 286 287 290 289 285 285 285 285 284 284 283 282 281 282 282 281 281 282 283 284 287 290 292 293 294 294 294 294 293 293 292 293 292 291 289 288 287 286
302 301 301 301 301 301 302 303 303 303 302 302 302 302 302 302 301 301 301 300 299 298 297 296 296 296 296 296 296 296 295 294 294 294 294 293 292 292 291 291 290 290 290 289 288 287 287 287 287 287 287 284 285 283 283 283 282 281 280 281 281 281 281 280 281 281 282 284 287 289 291 292 292 292 292 292 292 291 291 291 290 288 287 286 285
299 300 300 300 300 301 301 302 302 302 302 302 301 301 301 301 301 300 300 299 299 299 299 298 297 297 296 296 296 296 295 295 295 295 295 295 294 293 292 292 292 291 290 289 288 287 287 286 287 287 287 287 286 284 283 282 282 281 279 279 278 280 280 280 279 279 280 282 286 288 288 288 289 289 291 291 292 291 290 289 288 288 286 285 284
298 299 299 299 300 300 300 301 301 301 301 301 301 301 300 301 301 300 300 299 298 298 298 298 298 298 297 297 297 297 297 296 296 296 295 294 294 293 293 292 292 291 290 289 288 287 287 287 286 286 287 286 287 284 282 281 280 280 280 279 278 278 278 279 279 278 279 280 282 284 287 287 288 289 290 290 291 290 289 288 287 286 285 284 283
298 298 298 299 298 298 299 299 299 299 299 299 300 300 300 300 300 300 300 299 299 299 298 298 298 298 298 297 297 298 296 293 292 293 294 294 295 293 293 293 292 291 290 289 288 287 287 287 286 287 286 286 286 286 282 280 280 280 281 280 279 280 280 278 279 279 280 279 281 282 283 284 284 285 285 285 287 288 287 287 286 285 284 283 283
297 297 297 297 297 297 297 298 298 298 298 299 295 293 294 298 299 299 299 299 299 298 298 298 298 298 298 298 297 291 291 290 290 291 292 292 292 294 295 294 292 290 289 288 288 288 287 286 286 286 286 285 285 286 284 282 281 281 280 280 278 279 278 278 278 279 281 280 279 279 281 283 283 283 284 284 285 285 284 285 283 283 283 283 283
295 295 295 296 296 296 296 297 297 298 298 298 292 294 294 293 295 297 298 298 299 298 297 296 296 297 298 298 298 294 291 290 291 290 292 292 292 292 292 292 292 291 289 288 288 288 287 286 287 287 286 286 286 287 286 284 282 281 280 280 279 278 276 275 274 278 280 279 278 278 278 281 282 281 282 282 282 282 283 283 285 283 283 283 283
294 294 294 295 295 296 296 296 296 296 297 293 293 293 293 293 293 295 296 296 297 297 297 297 297 297 297 297 297 297 297 296 296 295 293 291 291 291 291 291 291 292 292 290 289 288 288 287 287 288 287 287 287 287 286 284 282 281 280 279 279 278 277 275 276 275 279 280 278 277 277 280 281 280 280 281 280 281 280 282 284 284 283 283 283
294 293 294 294 295 295 295 295 295 296 296 293 293 293 293 293 293 293 295 295 295 295 296 296 297 297 297 296 296 297 298 290 291 295 296 295 291 290 290 290 290 291 292 293 292 290 290 289 288 287 288 288 287 287 287 285 284 280 280 279 279 279 278 277 277 278 280 280 278 277 276 279 279 279 279 280 279 279 280 283 284 284 284 283 283
292 292 293 293 293 294 294 294 294 295 295 292 293 292 292 292 292 293 294 295 295 295 295 296 296 295 295 295 295 295 296 296 296 294 294 294 294 293 292 292 292 290 290 291 291 290 290 289 289 288 289 289 288 288 287 286 283 281 280 279 279 278 279 278 280 281 281 280 277 277 277 278 278 278 278 279 278 278 278 281 284 284 284 284 283
290 290 291 290 292 292 293 293 293 293 294 292 292 292 292 292 292 292 294 294 295 295 295 295 296 295 295 295 295 295 295 295 296 294 293 293 291 290 289 289 290 291 291 290 290 290 290 290 289 289 289 289 289 288 287 285 284 283 282 281 281 280 281 282 282 281 279 281 280 279 275 278 277 276 277 278 277 277 277 280 283 284 284 284 283
290 291 290 290 289 289 290 292 292 292 292 291 291 291 291 292 292 292 293 293 293 294 294 294 294 295 295 294 294 294 294 294 292 292 292 293 290 288 288 288 288 289 290 289 290 290 289 289 289 289 289 289 290 288 287 285 284 284 284 283 283 282 280 279 277 278 277 280 281 279 278 277 276 275 277 277 276 275 277 277 282 284 284 284 283
290 290 289 289 290 290 289 289 290 291 291 291 291 290 291 291 291 291 291 291 291 292 292 293 293 293 294 294 293 293 293 293 292 292 292 290 289 287 287 287 287 288 288 289 290 290 290 290 290 291 291 292 292 292 291 288 285 285 283 281 280 281 278 277 278 277 276 278 279 281 280 275 275 276 275 274 275 275 275 276 278 282 283 283 283
289 289 290 290 290 289 288 288 290 289 289 290 290 290 290 291 290 290 290 290 290 290 290 292 292 293 293 288 289 292 292 292 291 292 292 290 288 287 287 286 286 286 287 288 287 287 289 289 289 289 290 290 290 291 290 289 288 286 282 279 281 280 278 278 276 277 277 276 277 281 279 276 275 275 273 272 273 275 275 275 276 278 282 282 283
288 289 289 289 289 289 288 288 287 287 288 288 289 289 290 290 290 289 290 290 289 289 290 290 292 292 292 290 287 289 290 291 291 291 291 290 288 287 287 286 286 286 287 287 286 286 285 285 285 285 286 287 287 287 287 288 288 285 284 283 283 280 278 279 278 278 274 275 277 280 277 274 273 274 272 271 269 272 273 275 275 275 277 278 279
Wind_Speed
6 6 5 5 4 4 4 4 4 4 3 4 5 5 4 4 4 5 4 5 4 4 4 4 4 3 4 4 3 3 2 2 3 3 5 8 8 8 8 9 9 9 10 9 9 9 11 13 14 12 13 13 12 11 10 10 9 10 9 10 10 11 11 11 11 11 11 12 12 12 13 13 13 13 13 14 13 13 14 14 15 15 14 15 15
6 5 6 5 5 5 4 4 4 4 4 4 5 5 5 5 5 5 5 5 4 4 4 4 3 3 3 3 2 2 1 2 2 2 3 5 7 5 1 8 9 11 14 13 14 13 11 10 12 12 13 12 12 11 10 10 9 8 9 9 10 10 10 10 10 11 11 11 11 11 12 12 12 12 12 12 12 13 13 13 13 13 13 14 14
5 6 6 6 6 6 6 5 5 4 4 5 5 5 5 5 5 6 6 5 4 4 3 4 3 3 2 2 2 2 2 2 2 2 2 3 4 4 3 5 2 8 10 12 12 11 11 13 12 13 15 12 12 11 10 10 9 9 7 9 9 9 9 9 9 10 10 10 10 10 10 11 10 10 10 10 11 11 12 13 12 13 13 13 13
6 6 6 7 7 7 6 6 6 5 5 5 6 5 5 4 4 4 5 5 5 4 3 4 4 2 2 3 2 2 1 1 1 1 1 1 2 3 4 3 6 6 4 6 9 7 11 10 11 10 12 14 12 11 10 10 9 8 8 7 8 8 8 9 9 9 9 9 9 8 9 10 9 9 10 10 10 11 10 10 11 12 11 11 12
7 8 8 7 7 7 7 7 7 6 6 7 7 5 4 5 4 4 5 5 5 5 3 3 3 3 2 2 2 2 3 2 2 2 2 1 1 1 2 2 2 4 7 2 7 7 8 11 10 9 11 11 12 10 10 9 9 8 8 8 6 7 8 7 8 8 8 8 8 8 8 8 8 8 8 8 9 10 9 10 10 10 10 12 10
8 8 7 6 7 7 7 7 7 7 6 6 6 6 6 6 6 5 5 5 6 6 5 5 3 2 2 2 2 1 1 1 1 1 1 0 0 1 1 2 2 2 2 5 4 5 11 10 11 10 10 11 11 10 10 9 9 8 8 8 8 5 4 7 6 6 8 7 7 7 7 8 9 7 6 7 8 8 9 9 9 9 9 10 10
9 8 8 7 7 7 7 7 6 6 6 6 6 5 5 6 6 7 6 5 5 5 5 5 4 4 2 1 1 1 1 1 1 1 0 1 0 1 1 1 2 2 2 4 4 8 6 11 12 9 10 10 10 11 10 11 10 9 8 8 9 7 7 4 4 5 8 7 6 7 6 7 7 6 6 6 7 7 7 7 8 8 8 9 9
9 9 8 8 8 8 8 7 7 6 6 6 5 6 5 5 6 6 7 6 5 5 4 4 3 3 2 1 1 0 1 1 0 1 1 1 1 1 1 1 0 1 1 2 2 3 8 7 2 9 11 11 11 11 11 11 12 11 10 9 8 9 8 7 6 3 6 7 6 6 5 5 5 5 5 6 5 6 5 5 7 6 7 7 7
9 10 8 8 8 8 6 7 7 7 6 6 7 5 5 5 5 5 6 7 7 6 4 4 4 3 2 2 2 1 1 1 1 0 1 1 2 1 1 1 1 1 2 1 2 3 5 6 8 10 7 5 12 11 12 10 10 12 11 9 9 10 9 9 4 2 5 6 6 6 5 4 4 4 5 4 4 4 4 4 4 6 7 6 7
9 9 9 8 8 8 6 7 6 5 5 5 5 4 4 4 4 4 4 4 6 7 5 4 4 3 3 2 1 1 1 1 1 2 2 1 1 0 0 1 1 0 0 0 1 2 3 4 6 8 7 7 2 12 14 12 13 12 12 12 11 9 8 9 10 9 5 4 6 6 5 5 4 4 4 4 3 3 3 3 3 3 4 4 4
7 8 8 5 4 3 4 6 5 5 5 5 4 3 3 4 5 5 2 2 2 4 4 4 4 4 3 2 1 3 2 2 2 1 2 3 3 3 2 1 0 1 1 1 1 2 2 3 4 4 3 6 5 6 3 15 13 13 12 14 12 10 10 7 9 8 7 4 5 5 7 6 6 4 4 3 2 2 2 1 2 3 3 4 4
9 8 7 4 4 3 4 5 5 5 5 6 7 8 9 7 7 7 7 3 1 3 5 6 4 3 2 2 2 1 2 3 3 2 1 1 2 2 2 1 1 1 1 1 1 1 2 1 2 2 3 2 5 4 4 4 9 14 15 14 12 14 10 10 9 10 10 10 7 7 7 7 6 7 5 3 2 2 2 1 1 1 1 1 3
10 9 7 6 6 4 5 6 6 7 7 10 8 6 6 7 6 5 8 7 4 3 4 6 7 3 2 3 2 1 1 1 3 3 3 2 1 2 2 3 2 2 2 1 1 1 0 1 1 1 2 3 2 1 4 3 6 13 16 15 15 15 14 12 11 10 14 11 10 6 7 7 5 5 5 5 3 3 3 1 1 1 2 3 3
5 8 7 8 7 7 8 9 9 9 8 5 5 5 6 7 7 5 4 6 4 5 6 7 4 8 6 4 3 2 3 3 4 5 4 3 2 2 3 4 4 2 1 2 1 1 1 1 1 1 2 3 4 4 4 3 2 3 6 11 17 16 16 15 15 12 13 13 12 11 9 7 8 6 6 6 5 4 4 2 1 2 2 3 4
8 9 9 10 10 9 9 9 9 7 6 7 9 9 10 11 9 8 7 4 2 2 6 10 5 3 2 4 3 4 4 2 5 8 5 4 2 3 4 5 4 2 1 2 2 2 1 1 1 2 2 3 3 4 4 4 2 3 3 2 8 18 16 17 16 14 14 14 13 12 11 9 8 8 7 5 5 5 4 4 2 3 3 4 4
11 11 7 8 9 8 6 6 6 7 8 9 11 11 10 7 7 7 6 5 5 6 9 10 3 9 4 6 1 1 3 11 10 5 5 5 5 5 4 5 4 3 2 4 3 2 2 2 2 3 3 3 3 4 4 5 3 5 4 5 6 9 19 18 18 16 15 14 14 13 12 11 10 7 8 7 6 6 5 4 4 4 4 4 5
7 8 8 8 7 6 6 7 6 7 7 9 9 9 10 9 9 9 10 10 9 7 8 9 9 6 4 5 2 1 9 1 4 6 5 5 9 7 6 5 6 5 5 4 3 3 2 3 3 3 4 4 4 4 4 4 5 6 6 7 7 7 11 21 19 19 17 16 15 14 14 12 11 10 9 8 8 7 6 6 5 5 5 5 6
6 6 7 8 9 9 9 9 10 9 10 9 7 8 10 11 12 13 14 14 10 8 7 9 12 10 7 3 2 3 2 3 4 5 2 6 2 6 6 7 7 6 5 5 5 4 3 4 3 4 4 5 4 5 5 6 6 6 7 8 10 11 10 16 21 21 19 18 17 17 15 14 12 11 9 8 8 7 7 7 6 6 6 6 6
7 6 6 7 7 9 11 10 9 8 8 8 9 11 11 12 11 13 11 10 9 9 10 9 6 8 6 7 3 3 3 4 7 2 5 2 6 6 7 8 7 7 8 7 6 5 6 4 5 5 6 5 6 6 6 7 7 8 10 9 13 11 12 16 21 22 22 20 19 17 17 15 13 13 12 10 9 9 8 8 7 7 8 7 7
8 8 8 7 7 7 9 9 8 8 7 9 9 8 7 7 6 9 7 8 10 11 10 9 12 11 12 10 5 2 3 5 3 4 3 3 3 4 4 6 5 8 8 8 8 7 6 6 7 7 6 7 7 8 8 7 7 8 7 12 15 14 14 16 21 20 19 20 20 19 18 16 15 14 13 12 11 10 9 8 8 8 8 8 8
11 10 10 9 7 8 9 10 10 9 8 9 8 9 11 10 10 9 10 8 9 8 6 8 9 9 10 10 9 8 5 4 2 0 6 8 10 7 7 3 7 10 10 9 6 6 7 6 7 8 8 8 9 9 8 7 7 7 8 14 17 17 16 16 19 20 19 19 18 18 18 17 16 15 14 13 12 11 11 10 9 9 8 7 8
11 11 11 11 11 9 8 9 10 10 7 9 10 10 9 10 10 10 10 10 7 8 13 9 8 9 9 8 9 7 4 5 5 5 5 7 11 6 5 8 8 12 9 10 9 10 9 8 8 9 10 9 8 9 8 8 7 6 9 14 18 19 19 16 17 19 20 19 19 19 18 17 17 17 16 14 13 13 12 10 10 9 9 8 8
7 8 11 11 11 10 9 9 9 9 9 9 9 9 9 10 11 12 12 12 10 10 14 13 8 7 9 8 10 10 10 13 15 10 10 8 5 11 10 8 12 11 8 11 7 8 7 8 9 10 8 9 8 7 8 9 10 10 14 14 18 19 21 21 18 19 20 20 20 18 19 18 17 17 16 15 14 14 12 11 10 10 9 9 9
6 6 7 10 11 11 11 10 9 10 11 10 9 10 9 8 9 10 11 13 12 11 11 12 13 8 10 9 9 10 11 13 9 8 9 12 11 11 8 3 4 9 1 2 7 11 10 10 9 8 9 9 9 9 10 10 11 16 13 14 15 16 20 26 24 21 21 21 20 19 19 18 18 18 16 15 15 14 13 12 11 10 10 10 9
7 7 7 10 9 11 12 11 10 10 10 10 11 10 9 8 8 8 9 10 11 13 12 14 13 11 11 11 10 9 9 5 7 9 8 7 7 10 11 5 9 5 4 4 5 5 9 11 11 11 10 10 9 9 9 9 8 11 14 12 18 15 17 22 27 25 22 22 21 20 20 20 19 18 16 15 14 14 12 11 10 9 9 9 9
7 8 8 8 9 9 10 10 11 9 10 11 11 11 8 8 10 11 12 9 9 13 10 9 11 13 9 7 7 10 10 8 8 5 7 7 9 11 11 4 4 8 1 3 3 2 8 11 11 10 10 11 9 8 9 11 9 15 15 12 13 18 17 18 24 26 26 23 22 21 21 20 20 19 17 17 16 14 13 11 10 9 10 10 9
7 7 7 8 8 8 9 9 8 7 10 10 10 10 10 8 8 10 8 7 10 10 9 11 10 11 10 10 11 11 10 9 7 10 7 7 12 10 8 10 9 7 7 6 5 11 12 5 11 10 11 11 11 11 10 9 13 17 16 11 11 18 17 19 23 25 26 25 22 23 22 22 21 20 19 18 17 14 13 12 12 11 10 9 9
6 6 6 7 7 8 8 9 8 8 10 10 11 10 11 13 11 9 9 7 9 13 12 11 12 14 14 12 9 10 8 8 7 7 9 8 11 8 6 8 10 14 7 9 8 13 11 9 6 11 11 12 12 9 12 14 11 16 17 10 10 11 19 21 24 26 27 27 26 24 24 23 22 22 20 18 17 16 11 8 5 5 6 8 10
5 5 6 7 7 8 8 9 9 9 10 10 10 10 10 11 11 9 10 9 9 11 11 10 11 12 11 13 12 11 11 9 9 10 10 9 8 9 8 10 11 10 9 11 9 9 7 11 8 8 12 9 6 9 10 9 14 15 11 12 12 10 15 24 25 27 27 28 26 26 25 25 24 23 22 20 18 15 14 12 11 11 11 11 11
5 5 6 7 8 9 9 9 9 9 11 10 11 10 9 9 9 11 8 8 10 9 10 11 11 9 10 9 9 10 11 9 9 10 10 10 9 8 8 11 9 12 12 12 17 8 6 8 10 9 8 11 13 11 12 11 12 19 9 13 13 10 14 21 23 24 24 25 26 26 27 26 26 24 23 21 20 18 16 16 14 12 12 12 11
7 7 8 8 8 9 9 9 9 10 11 11 11 10 9 9 8 8 8 8 9 10 9 9 10 9 10 12 11 11 10 11 9 10 10 10 11 10 11 9 10 11 12 11 15 10 9 10 6 10 8 12 10 12 12 9 10 13 9 11 12 15 16 17 21 22 22 24 25 27 27 28 27 25 24 23 21 19 17 15 13 13 12 12 11
7 8 8 8 9 9 8 9 9 10 11 11 11 11 9 8 8 8 7 9 10 11 11 10 8 9 11 12 12 10 8 8 10 10 10 10 10 10 10 10 10 10 9 12 15 17 7 10 10 6 10 10 10 11 14 12 14 15 15 10 9 17 11 7 18 20 22 24 25 26 29 28 28 26 25 24 23 20 17 16 15 14 13 12 11
7 7 8 9 9 9 9 9 9 9 9 12 10 10 10 9 8 8 7 8 10 10 9 10 10 9 10 11 12 12 11 10 10 10 10 10 10 10 10 10 10 9 11 13 15 18 9 11 11 8 3 6 7 10 14 15 13 12 13 14 9 10 8 6 11 20 21 24 24 25 27 28 27 25 26 24 23 21 17 17 16 15 13 12 10
10 10 10 8 8 9 9 9 9 9 9 11 12 10 10 10 8 7 8 8 9 10 9 10 10 8 9 12 12 12 10 12 11 11 10 10 11 11 12 10 10 14 12 13 15 16 21 9 10 4 5 7 11 9 13 15 16 12 13 14 11 10 7 5 12 13 22 23 24 24 26 27 26 26 24 23 23 20 18 18 16 14 13 12 10
9 9 10 10 11 9 8 9 9 9 9 10 9 11 11 11 10 9 9 8 10 10 10 11 10 10 10 11 13 12 9 11 13 13 11 12 10 12 13 11 13 13 12 14 12 15 18 13 9 10 10 7 9 8 10 11 13 13 16 15 15 14 14 16 9 11 18 23 23 24 26 27 26 23 23 25 23 21 19 18 16 14 13 11 11
9 8 9 10 10 10 10 8 8 9 9 9 9 9 12 12 12 12 10 9 9 10 10 10 10 10 11 11 13 12 11 12 12 11 11 11 11 13 12 12 14 14 13 11 14 14 14 14 9 11 9 7 7 7 6 8 9 10 12 10 12 13 15 13 13 11 14 21 23 23 25 26 24 24 25 25 22 20 19 19 17 15 13 12 11
9 8 8 8 10 10 10 11 10 10 10 10 9 9 9 11 12 11 11 10 10 10 11 11 11 11 11 13 13 12 12 13 12 12 11 13 12 12 12 10 11 11 10 11 13 13 14 16 16 10 8 7 5 6 7 7 7 9 8 11 12 14 14 13 8 5 11 18 21 21 23 23 22 22 22 21 21 20 20 21 18 15 14 13 12
9 8 8 8 8 9 10 11 12 11 9 9 9 9 9 9 10 11 11 11 11 11 11 11 11 11 12 13 13 12 12 13 13 12 12 14 12 13 13 10 9 10 12 11 11 12 13 17 14 13 8 9 7 5 6 8 7 6 6 7 7 8 8 6 7 6 7 8 8 10 14 17 18 23 22 21 20 20 20 20 17 16 15 13 13
8 8 8 8 8 9 10 10 11 12 10 8 9 9 9 9 10 13 12 12 12 12 11 11 11 11 12 12 12 12 13 13 14 13 13 13 11 13 14 13 12 12 12 11 11 13 13 14 13 11 10 10 10 11 6 7 6 7 7 7 10 8 8 10 9 6 6 5 6 10 10 11 14 15 19 21 21 20 19 19 18 17 15 14 13
8 8 8 8 8 9 9 10 11 10 9 10 9 9 9 10 11 12 12 12 12 11 11 11 11 12 13 13 13 13 13 13 13 14 13 13 11 13 12 11 11 11 11 11 11 11 12 10 11 10 9 10 9 8 2 7 8 7 9 9 8 9 11 10 11 11 9 10 11 10 13 13 14 17 20 20 21 21 19 18 19 17 17 15 14
7 7 7 8 8 9 9 9 10 10 10 8 7 7 8 9 11 13 13 13 13 12 13 13 13 13 13 12 13 13 14 16 19 17 15 14 12 13 12 10 11 12 12 10 10 11 11 12 13 11 12 11 10 11 8 9 13 17 9 9 10 9 8 10 11 12 10 9 7 7 7 10 9 8 6 8 10 16 16 17 14 18 18 16 15
6 6 7 7 7 8 9 9 9 9 9 9 8 10 9 10 10 10 11 13 14 13 13 14 15 14 12 13 13 16 17 18 19 19 19 20 20 16 13 10 11 10 11 11 11 11 10 12 13 10 12 12 9 12 11 11 6 3 5 9 11 7 7 7 4 7 6 9 12 10 5 5 8 6 9 12 8 10 7 12 11 12 16 17 15
5 5 6 7 7 7 8 9 9 9 8 8 9 10 11 13 10 10 11 12 13 14 14 14 15 15 15 15 15 13 14 16 17 18 19 21 21 22 23 20 15 12 11 12 13 11 10 11 12 11 11 13 11 10 12 8 9 10 10 9 10 9 10 10 12 6 9 13 13 15 9 7 9 10 11 12 8 11 9 10 16 18 18 18 15
4 4 5 5 5 6 6 8 8 8 8 7 10 11 11 12 11 10 10 11 11 14 14 15 14 14 15 14 13 10 12 12 12 14 17 20 22 22 22 22 22 23 20 15 13 11 13 12 11 14 12 13 11 9 9 7 9 9 10 9 9 12 11 11 10 12 9 17 15 14 12 7 7 8 8 10 8 7 7 13 20 19 18 17 16
3 4 5 5 5 6 6 8 8 8 8 7 9 11 11 12 13 12 10 11 12 13 13 14 16 15 15 13 13 12 9 12 12 13 14 14 16 20 22 23 23 23 23 24 22 17 11 13 14 15 13 10 12 11 8 10 8 10 9 9 8 7 9 10 11 9 10 15 10 9 8 7 11 13 10 8 6 6 8 17 21 20 18 17 17
4 4 5 6 6 6 7 8 8 8 9 7 9 11 12 12 13 12 11 12 13 14 15 14 14 13 13 13 14 12 10 10 11 10 10 11 11 12 13 12 13 16 19 22 23 25 21 16 14 16 13 8 13 10 6 9 11 12 10 11 12 12 13 14 16 9 5 13 14 10 8 8 8 10 13 8 6 6 6 13 20 19 18 18 17
2 3 3 4 6 6 7 7 8 9 7 7 9 11 12 12 12 12 11 11 12 13 14 15 16 15 13 13 14 15 14 13 13 9 9 10 10 11 11 12 12 12 11 12 12 13 13 14 15 16 16 12 12 11 6 8 13 13 14 16 17 17 16 9 1 3 4 11 12 11 12 6 7 8 9 8 6 6 4 12 18 18 18 18 17
2 2 3 4 4 4 5 7 8 10 8 7 9 10 12 12 12 9 9 11 12 12 13 13 13 12 12 13 13 14 14 15 14 13 13 11 10 12 13 13 11 11 11 10 13 14 12 12 12 14 13 13 14 11 8 8 9 9 7 5 5 6 6 7 8 4 6 6 11 11 7 3 6 6 6 6 6 7 6 7 16 20 19 18 17
3 3 3 4 4 4 4 5 8 9 9 9 9 10 12 12 10 7 7 8 10 11 12 11 11 12 12 12 12 12 13 14 13 14 15 14 11 13 13 14 12 11 10 7 13 18 18 20 21 21 21 20 19 18 18 17 13 10 8 7 9 8 8 9 8 7 5 7 7 8 6 3 7 8 7 5 6 8 7 7 7 17 19 17 17
4 3 3 4 4 4 5 5 7 7 8 8 8 9 11 12 11 7 7 9 10 11 11 11 10 12 13 14 14 13 14 14 13 14 14 12 12 13 13 13 15 13 11 7 7 9 14 17 19 20 20 20 19 19 16 18 19 15 11 12 10 8 9 10 9 10 8 8 9 9 9 7 8 7 7 4 5 5 6 6 6 9 15 15 18
4 4 4 4 4 4 4 5 8 8 8 9 11 12 12 12 10 7 8 9 10 11 10 11 11 11 12 11 14 15 14 14 16 16 16 13 12 12 12 12 14 14 11 7 9 8 7 8 9 10 11 14 12 10 11 20 22 18 14 13 10 10 11 13 10 9 6 6 9 11 10 6 10 9 9 7 3 3 3 4 6 6 8 8 9
Wind_Direction
178 178 177 176 162 167 171 176 168 162 165 165 166 175 177 168 160 160 155 150 146 142 135 131 135 119 118 105 95 95 96 109 110 94 148 148 152 143 148 145 148 137 135 138 134 129 137 131 131 131 123 121 119 117 116 112 108 108 104 103 100 99 96 91 90 87 85 85 84 81 82 77 78 74 77 75 71 70 70 69 67 66 64 60 58
179 181 184 175 170 168 177 174 178 173 177 174 175 182 179 173 167 163 160 156 156 144 152 139 120 106 93 102 96 94 64 49 67 97 123 148 152 128 56 169 162 155 148 145 145 148 143 135 135 133 127 129 127 130 124 119 116 112 112 110 105 105 102 100 95 90 86 87 84 80 79 80 77 74 75 78 75 53 50 69 64 65 62 60 57
183 184 190 180 181 180 188 180 183 184 187 180 177 189 183 181 175 167 164 161 151 148 163 141 122 98 65 55 52 46 42 46 58 62 112 117 141 143 93 34 166 171 166 163 154 154 150 148 146 138 139 138 136 134 133 131 128 123 117 115 115 112 108 106 101 97 93 90 86 87 84 83 82 80 80 79 76 68 65 60 63 62 59 58 55
188 187 193 188 190 191 188 187 192 186 189 183 180 187 187 174 167 164 155 156 150 152 145 147 136 121 106 101 87 79 58 81 99 63 54 53 95 135 145 129 55 5 248 177 170 167 157 165 151 159 150 145 143 142 142 139 138 134 130 124 124 119 117 113 110 107 103 98 94 91 89 87 88 86 82 84 78 79 73 65 62 58 57 53 51
192 193 191 194 193 191 192 194 193 186 188 181 177 179 179 170 165 164 158 156 153 149 145 145 133 127 122 86 78 56 23 3 21 22 21 57 108 115 145 141 106 71 13 185 162 170 184 157 168 166 158 157 150 152 151 148 146 147 141 135 126 131 126 119 117 118 113 109 103 102 100 95 91 88 84 80 79 78 73 71 66 59 55 51 47
192 191 190 191 192 195 194 196 196 183 177 172 182 187 185 176 167 173 173 174 167 159 162 156 137 122 113 81 67 47 26 41 30 32 346 357 120 142 155 156 153 158 123 40 12 194 176 173 174 177 172 169 164 160 160 157 157 153 153 150 139 124 110 128 133 119 118 121 114 111 109 103 97 97 83 79 78 78 72 67 62 59 56 51 45
191 188 191 195 193 200 202 202 191 180 176 180 187 188 192 183 176 179 172 182 170 163 170 160 157 148 115 82 84 82 128 147 144 116 34 341 306 149 162 155 144 160 175 175 110 23 327 192 192 180 180 172 173 172 169 170 162 165 164 153 151 150 148 138 131 139 127 120 125 122 114 113 109 105 90 79 76 77 67 65 60 53 52 48 41
190 191 194 199 201 205 202 196 179 178 182 175 184 186 189 189 192 187 174 177 169 170 172 151 139 112 101 119 115 237 179 149 86 21 355 285 175 176 204 116 120 103 314 175 152 46 16 31 104 178 180 179 180 175 179 186 167 178 172 170 164 164 156 158 163 162 127 136 138 131 128 116 116 108 102 92 82 75 72 64 55 58 50 45 40
197 196 200 198 205 210 202 184 168 180 179 178 186 188 180 186 191 206 202 176 172 160 151 138 135 128 79 40 31 18 41 11 334 270 263 244 188 166 169 122 102 291 235 131 161 149 45 28 56 49 36 193 186 182 187 185 177 176 175 181 173 170 177 169 168 147 155 156 155 147 145 132 121 117 112 110 99 85 73 65 63 50 43 38 36
201 203 207 199 197 196 176 165 165 168 176 177 180 168 176 178 178 200 216 185 179 168 161 129 118 117 80 48 13 352 7 305 313 295 273 229 220 203 154 163 157 197 200 289 189 142 142 84 70 66 52 39 112 197 193 188 185 185 182 178 182 175 170 181 168 192 147 188 165 160 159 153 148 144 143 138 124 90 80 74 53 52 47 35 31
205 205 210 192 178 170 153 153 151 161 163 179 180 158 148 192 180 179 185 241 207 151 131 131 130 125 121 88 56 7 346 340 321 301 309 330 340 349 319 309 331 328 340 245 187 165 169 156 158 160 90 26 40 34 223 194 192 186 187 186 180 171 180 179 186 149 166 211 180 179 170 173 166 171 173 167 161 137 118 83 54 49 31 22 9
202 202 208 181 168 169 165 150 162 153 164 184 195 190 185 181 199 181 176 147 88 130 136 142 121 85 83 90 94 52 344 329 311 315 296 297 321 310 293 301 270 222 277 248 189 205 182 170 160 155 138 86 26 16 21 23 200 189 191 193 183 182 180 193 205 176 198 186 192 197 183 183 178 193 178 198 192 184 175 130 49 339 8 3 0
207 199 196 187 190 171 154 176 179 181 184 200 196 187 180 176 187 189 173 162 173 165 160 150 140 113 21 339 331 144 125 309 301 290 272 259 264 275 285 277 244 234 218 251 238 241 307 210 178 167 182 160 158 39 11 26 6 205 199 195 195 188 190 196 220 196 192 185 197 196 189 192 191 216 184 199 205 204 209 162 75 304 334 336 357
190 201 194 192 187 179 187 191 189 192 196 168 155 182 178 186 177 172 188 172 169 166 173 136 198 194 181 201 242 226 200 198 243 244 248 242 229 265 277 263 241 221 240 246 238 250 282 274 230 219 204 194 184 178 180 174 150 358 201 217 200 198 195 192 198 200 189 188 194 188 203 206 195 212 199 203 209 215 217 217 222 286 287 312 321
192 200 200 200 199 193 193 188 188 179 171 189 194 194 192 189 180 181 166 187 135 158 184 206 175 129 73 61 237 237 234 251 211 231 207 224 228 248 251 262 260 264 264 259 236 226 225 284 287 262 245 229 204 197 199 207 97 314 276 293 221 202 201 196 198 206 191 196 193 194 192 204 210 207 210 219 227 225 225 224 214 257 298 304 308
207 209 208 207 198 195 184 181 175 176 187 194 199 202 188 172 173 187 158 152 189 196 203 209 184 146 189 211 224 210 281 233 209 201 166 205 213 228 223 237 245 241 243 236 225 232 216 205 242 244 243 237 226 209 208 206 162 244 273 277 265 227 212 209 206 209 199 200 201 197 197 197 207 209 209 213 225 242 237 235 238 261 270 277 292
201 203 204 214 210 196 176 189 184 187 196 209 206 199 187 184 173 175 186 190 192 191 199 212 221 262 151 131 110 235 228 332 164 217 151 203 221 211 214 226 234 233 234 238 237 234 236 241 230 245 241 248 238 229 220 205 199 211 222 238 248 250 261 211 207 210 210 212 207 208 202 201 204 209 213 220 221 228 230 236 238 241 258 279 293
200 199 202 204 206 202 194 187 194 193 201 206 196 199 196 187 189 191 197 207 200 171 193 209 221 228 234 310 95 210 203 179 123 247 86 246 230 196 210 220 225 228 224 221 220 217 208 231 229 231 237 237 231 231 227 215 209 208 214 210 220 230 246 223 209 213 214 214 214 210 211 203 202 205 221 223 226 232 231 234 242 248 255 265 274
207 202 201 202 207 208 206 201 196 194 191 197 200 199 198 197 193 199 202 197 194 196 193 192 201 245 246 243 203 182 263 146 213 65 291 187 224 213 219 210 214 221 225 222 213 202 199 200 225 228 230 228 229 226 225 222 214 223 221 216 209 219 232 227 212 212 217 214 215 215 212 207 200 205 213 220 218 225 235 236 240 247 252 259 269
218 211 208 202 205 208 205 205 199 195 188 201 202 198 194 205 189 205 204 198 201 205 195 183 183 211 206 219 215 239 261 289 307 231 216 231 219 219 233 209 207 232 227 223 213 208 206 201 211 218 220 223 225 224 222 219 217 218 222 221 212 212 221 222 216 213 218 210 212 213 213 205 203 207 210 219 220 221 232 234 237 247 258 267 272
222 222 216 212 205 211 207 208 209 205 194 211 211 207 209 199 193 199 202 198 199 209 201 196 196 212 185 218 220 225 226 246 280 234 227 236 253 195 216 170 229 245 230 216 207 200 205 204 202 209 215 221 216 218 217 215 213 214 220 215 216 213 212 214 208 204 202 203 205 206 206 205 206 205 209 214 218 225 225 230 236 241 249 259 268
220 222 223 224 228 220 209 209 211 214 196 209 206 205 198 202 200 199 202 202 201 205 219 217 201 215 204 192 191 199 217 244 225 225 262 241 249 229 205 185 209 234 205 205 202 213 212 214 208 206 215 215 212 210 210 213 210 206 215 213 216 214 210 204 202 197 196 197 201 203 206 210 209 210 210 212 215 221 226 227 234 239 245 254 262
207 219 227 229 229 230 225 216 212 211 202 204 205 202 202 199 206 204 206 200 204 202 218 228 217 213 222 212 212 203 191 213 229 215 217 227 244 253 243 212 224 251 223 199 189 210 204 212 217 210 205 211 211 204 208 213 212 213 213 210 216 219 213 207 199 194 193 195 198 199 204 208 210 211 211 214 216 219 224 227 231 239 247 254 261
215 214 217 228 229 230 230 227 221 218 219 215 209 204 201 196 203 204 207 206 207 202 212 221 222 223 222 224 225 223 226 232 234 218 206 229 227 246 244 217 262 235 258 219 156 214 199 219 221 217 211 215 215 209 215 217 218 214 211 216 219 225 223 218 211 203 200 199 200 200 202 205 211 210 212 214 217 224 232 234 233 240 248 254 261
215 217 217 214 220 230 231 231 229 224 224 220 225 208 203 199 198 201 206 202 207 210 215 217 212 213 215 218 222 220 231 226 231 230 229 224 205 245 250 158 239 251 215 136 229 221 226 228 222 221 215 212 213 208 211 213 217 207 207 217 219 224 229 224 220 216 208 206 205 203 203 205 209 209 210 213 219 222 223 227 235 239 251 264 270
212 213 214 211 214 222 227 231 237 237 238 235 229 218 202 206 204 208 210 207 205 217 219 212 217 221 219 219 212 227 232 224 221 202 203 183 217 222 242 221 228 262 122 215 213 219 233 223 223 221 215 217 212 205 206 214 216 213 198 210 214 220 225 229 221 219 218 211 209 204 205 209 208 210 208 210 214 220 222 226 225 235 246 252 260
216 217 209 211 216 219 223 225 223 229 243 238 229 220 212 214 211 212 208 195 208 211 214 211 216 216 214 220 224 221 229 225 211 229 210 207 223 226 223 245 250 227 243 218 225 212 238 192 206 211 214 213 214 206 201 200 215 214 205 209 221 218 220 223 221 218 219 217 210 210 206 209 209 208 206 209 213 215 223 222 239 245 241 254 271
220 213 212 212 218 222 223 226 228 233 241 239 230 218 216 220 224 214 213 192 209 214 218 217 223 220 220 220 227 235 227 225 213 218 222 221 227 232 217 226 243 263 226 241 208 244 201 230 195 211 206 210 209 201 206 214 220 208 201 207 213 217 216 218 218 216 214 217 213 212 210 211 210 212 207 207 211 216 218 225 228 236 254 260 263
227 213 222 216 221 223 228 228 225 227 240 237 231 226 220 220 225 221 224 210 215 218 221 221 226 224 226 224 225 233 236 230 228 227 227 226 223 224 218 221 226 246 261 257 227 239 210 195 237 227 202 208 189 203 204 200 214 205 195 204 210 212 208 214 215 216 216 217 214 216 216 215 213 212 211 209 207 206 207 208 213 226 238 247 256
221 218 220 223 221 221 229 228 226 225 240 240 234 226 221 223 222 226 221 211 223 228 224 225 230 227 231 230 227 235 236 230 227 226 226 221 222 217 220 231 226 235 246 257 269 222 257 180 213 234 160 205 214 216 215 214 202 205 192 207 210 212 205 214 217 217 217 218 217 216 217 217 215 214 212 209 210 208 207 216 229 235 237 246 257
224 222 220 224 221 220 221 228 227 232 239 243 240 229 217 224 221 224 221 214 221 228 224 221 229 222 225 231 228 235 232 233 230 230 225 223 227 226 232 227 228 228 239 251 271 253 218 245 222 226 218 206 205 212 212 211 192 190 189 205 211 211 204 214 217 219 219 219 219 215 215 216 216 213 212 210 208 207 211 227 231 235 237 244 257
227 222 225 224 223 222 222 225 226 233 238 242 243 234 222 221 221 223 217 214 223 228 230 224 225 223 226 228 228 230 223 226 234 230 227 226 225 229 228 225 227 224 229 245 246 262 194 249 257 210 212 202 202 198 203 217 222 200 212 214 207 210 208 208 216 218 217 217 217 215 215 216 216 213 212 211 210 208 213 221 225 229 235 243 253
232 231 229 231 231 229 228 226 225 227 228 239 240 238 229 223 221 224 218 214 223 231 228 232 226 222 227 231 233 232 228 229 228 229 228 228 226 229 227 228 225 211 219 233 244 261 249 242 264 262 189 200 225 207 222 217 217 214 213 221 198 203 198 194 212 217 219 218 217 215 215 216 216 211 212 211 210 210 211 221 224 228 232 241 250
250 249 245 237 234 233 234 232 230 228 231 234 241 239 236 230 225 221 222 217 225 231 227 234 228 222 222 230 234 234 226 229 230 232 227 226 224 225 229 219 217 225 217 227 242 251 267 248 251 184 244 185 235 198 212 213 217 213 216 218 215 203 188 173 212 218 217 219 219 217 213 213 214 214 210 209 209 206 212 219 223 229 230 233 234
249 244 248 249 248 239 236 236 234 234 231 233 232 238 239 233 228 228 223 219 223 227 228 232 231 226 226 229 235 233 226 231 232 235 229 230 222 225 226 222 230 228 223 222 235 249 255 259 233 254 233 211 216 207 202 216 216 208 215 216 214 210 211 213 214 211 214 216 218 218 215 214 213 210 207 208 209 212 215 218 220 219 222 225 227
249 247 247 250 248 247 244 239 234 235 234 231 231 229 239 241 238 235 227 225 227 230 231 233 230 226 227 230 234 231 228 231 233 233 231 231 230 233 231 228 231 234 229 222 228 241 254 266 246 243 250 212 237 238 222 218 213 211 215 219 216 218 217 214 215 198 219 217 218 219 217 213 209 212 211 211 210 212 213 212 213 213 211 214 223
249 251 246 245 248 247 247 248 242 235 236 236 235 234 230 238 242 241 238 231 226 230 231 232 230 228 229 230 234 228 228 233 234 233 231 229 229 231 233 228 228 231 228 225 231 231 248 253 262 253 241 236 235 240 172 204 213 219 215 219 218 222 221 217 208 171 209 217 218 221 218 213 210 212 210 208 211 212 212 210 207 207 209 211 215
253 247 246 246 244 246 248 249 251 248 241 235 236 236 233 229 238 247 246 242 237 232 232 233 231 230 232 234 234 230 229 230 236 233 232 232 228 231 232 227 222 227 232 227 227 234 238 250 252 263 232 231 239 212 203 205 205 209 212 219 222 216 203 197 199 163 174 204 204 212 214 213 211 210 209 208 210 208 207 209 206 206 205 208 212
249 248 245 245 244 247 249 250 251 253 249 242 241 239 237 234 238 248 248 247 246 244 241 238 236 235 236 237 237 232 232 232 236 234 234 235 230 231 229 233 229 230 230 226 224 231 235 247 252 245 257 241 234 246 196 191 207 204 185 184 211 196 183 187 195 157 152 193 217 207 203 201 202 205 208 207 207 201 201 202 203 206 204 204 209
247 248 249 246 249 249 253 254 257 254 247 250 244 241 240 245 249 249 249 249 245 241 245 246 241 240 239 238 237 234 233 233 234 238 232 238 233 237 231 231 231 229 232 230 228 230 236 238 243 246 236 249 237 228 149 179 209 221 207 194 197 189 205 209 207 188 188 187 195 192 198 199 204 209 212 213 211 204 200 199 201 202 201 200 208
246 248 250 251 253 254 256 256 259 259 256 246 240 240 243 244 249 252 252 251 253 255 252 246 245 242 242 240 239 238 234 236 234 236 234 230 233 240 236 224 228 227 233 230 231 230 237 239 247 241 246 243 233 233 209 199 207 224 201 193 225 215 199 200 208 202 192 182 184 184 195 191 190 193 190 204 208 201 202 197 200 199 197 199 205
240 249 251 252 253 256 260 260 258 258 257 258 237 235 243 255 259 257 257 256 257 258 258 256 252 245 239 240 239 234 236 237 238 239 240 239 238 239 242 225 227 228 230 230 231 230 230 235 238 234 240 237 219 219 227 221 195 145 177 195 208 198 180 208 208 202 171 180 192 201 195 174 181 181 192 205 194 191 188 198 195 193 195 202 206
235 239 246 252 255 259 260 262 262 259 255 256 244 239 240 241 248 258 260 262 260 257 257 256 257 258 255 250 248 235 234 241 245 244 243 243 244 244 244 241 236 226 229 230 233 226 227 233 239 239 235 246 239 230 233 216 200 202 205 195 197 185 193 181 207 182 185 188 197 205 203 181 174 188 199 201 187 187 188 196 193 191 195 202 206
235 232 241 247 251 254 258 259 258 255 255 244 243 246 242 242 238 248 256 259 257 259 258 258 259 259 260 258 249 237 240 232 237 239 239 240 243 245 245 244 242 239 233 230 235 234 232 240 243 238 241 244 251 233 228 206 203 197 200 191 192 189 190 199 204 201 183 178 196 202 207 160 165 188 197 202 177 177 164 178 189 190 195 199 204
247 243 246 245 246 245 247 256 258 256 256 248 248 251 250 246 243 241 252 254 257 257 255 256 260 261 263 262 262 257 245 234 237 246 254 252 237 240 245 245 244 241 241 239 236 238 240 241 248 251 239 244 251 241 215 210 189 199 192 199 195 189 200 202 214 212 191 181 171 194 187 171 176 200 207 199 162 166 173 190 194 198 202 204 206
245 251 249 248 249 245 246 253 261 262 258 253 249 254 254 250 247 243 251 254 257 258 258 259 259 256 256 258 264 261 254 243 240 230 235 243 252 253 249 243 244 244 242 242 242 241 240 242 248 253 251 229 244 250 213 184 182 197 191 206 198 204 208 214 213 206 161 166 183 177 197 183 168 188 210 202 152 162 171 194 200 204 205 204 206
240 243 245 246 243 243 250 252 261 267 259 250 251 255 257 253 250 246 254 254 256 259 259 260 260 259 256 259 259 264 265 260 257 238 235 241 248 251 251 252 249 248 243 238 238 241 242 241 245 250 257 249 248 249 224 189 195 199 195 201 197 201 211 223 297 194 136 182 184 186 212 146 156 186 206 194 161 162 152 199 206 206 205 205 206
250 252 258 253 255 249 248 252 260 268 266 249 246 251 257 257 251 251 252 254 255 256 256 256 253 254 252 250 255 260 260 263 256 242 244 247 252 250 251 253 254 251 248 238 237 240 240 242 243 246 250 251 250 248 230 194 203 204 205 217 212 207 199 198 201 156 173 184 186 188 206 143 158 171 182 174 140 168 168 186 205 205 204 205 205
257 249 247 247 246 245 241 242 253 264 271 264 254 250 252 254 254 254 253 255 257 255 255 255 255 253 250 246 247 255 258 258 254 243 240 235 247 248 250 254 253 253 252 240 233 238 241 243 246 250 254 257 255 252 240 193 194 188 186 193 201 172 184 198 199 172 183 168 200 198 191 155 171 171 164 154 153 176 178 181 191 206 203 205 204
273 262 266 267 252 241 239 238 242 262 270 274 269 260 252 251 249 255 256 262 263 261 265 256 252 259 252 240 244 251 255 257 253 249 243 235 244 246 248 254 257 255 253 245 243 239 238 244 249 250 251 253 253 243 225 208 195 182 185 201 190 165 195 194 189 190 181 178 186 173 181 198 153 152 138 100 136 180 177 167 171 198 206 208 207
270 274 264 267 265 262 245 243 251 254 267 275 272 267 261 258 254 255 260 267 268 265 267 271 266 266 266 252 236 238 246 254 256 255 249 240 245 248 248 252 256 257 254 244 245 243 239 240 246 248 250 250 245 234 231 225 206 190 198 201 188 184 190 200 194 188 185 207 182 176 177 155 147 169 137 136 172 184 146 155 165 176 195 200 209